W5IM Weather Reports


Display with metric or nautical units.
time (UTC)temp
F
wind
direction
speed
MPH
gust
MPH
rain 1hr
in
rain 24hr
in
rain mn
in
humidity
%
barometer
mb
20260831103008 81 171 4.0 6.0 0.00 0.00 0.00 88 1013.5
20260831102007 81 165 3.0 5.0 0.00 0.00 0.00 88 1013.6
20260831101508 81 173 4.0 6.0 0.00 0.00 0.00 88 1013.6
20260831101008 81 164 5.0 6.0 0.00 0.00 0.00 88 1013.6
20260831100507 81 166 5.0 8.0 0.00 0.00 0.00 88 1013.7
20260831100007 81 152 6.0 9.0 0.00 0.00 0.00 88 1013.8
20260831095007 81 173 5.0 8.0 0.00 0.00 0.00 88 1013.6
20260831094507 81 164 5.0 7.0 0.00 0.00 0.00 87 1013.7
20260831094008 81 166 6.0 7.0 0.00 0.00 0.00 87 1013.6
20260831093007 82 163 6.0 7.0 0.00 0.00 0.00 87 1013.6
20260831092507 82 167 4.0 8.0 0.00 0.00 0.00 86 1013.5
20260831091507 81 178 5.0 7.0 0.00 0.00 0.00 86 1013.5
20260831091007 81 171 5.0 7.0 0.00 0.00 0.00 86 1013.6
20260831090507 81 160 6.0 9.0 0.00 0.00 0.00 86 1013.6
20260831090007 82 168 5.0 8.0 0.00 0.00 0.00 86 1013.7
20260831085507 82 175 5.0 8.0 0.00 0.00 0.00 85 1013.7
20260831085007 82 177 4.0 8.0 0.00 0.00 0.00 85 1013.7
20260831084507 82 181 5.0 9.0 0.00 0.00 0.00 85 1013.7
20260831084008 82 167 5.0 8.0 0.00 0.00 0.00 85 1013.8
20260831083008 82 162 6.0 9.0 0.00 0.00 0.00 85 1013.9
20260831082007 82 177 5.0 9.0 0.00 0.00 0.00 84 1013.8
20260831081508 82 176 5.0 8.0 0.00 0.00 0.00 85 1013.9
20260831081007 82 176 6.0 9.0 0.00 0.00 0.00 85 1014.0
20260831080507 82 176 6.0 8.0 0.00 0.00 0.00 85 1014.0
20260831080007 82 171 5.0 10.0 0.00 0.00 0.00 84 1014.1
20260831075507 82 169 5.0 9.0 0.00 0.00 0.00 84 1014.1
20260831075008 82 170 5.0 9.0 0.00 0.00 0.00 84 1014.1
20260831074507 82 174 5.0 9.0 0.00 0.00 0.00 84 1014.1
20260831074008 82 174 6.0 9.0 0.00 0.00 0.00 85 1014.2
20260831073507 82 162 6.0 9.0 0.00 0.00 0.00 84 1014.2
20260831073008 82 165 5.0 8.0 0.00 0.00 0.00 84 1014.3
20260831072507 82 172 6.0 9.0 0.00 0.00 0.00 84 1014.3
20260831072007 82 166 6.0 7.0 0.00 0.00 0.00 84 1014.3
20260831071506 82 164 5.0 8.0 0.00 0.00 0.00 84 1014.4
20260831071011 82 175 5.0 7.0 0.00 0.00 0.00 85 1014.4
20260831070507 82 161 6.0 9.0 0.00 0.00 0.00 84 1014.4
20260831070007 82 169 5.0 9.0 0.00 0.00 0.00 84 1014.4
20260831065507 82 158 6.0 9.0 0.00 0.00 0.00 84 1014.4
20260831064507 82 166 6.0 9.0 0.00 0.00 0.00 84 1014.3
20260831064008 82 171 5.0 8.0 0.00 0.00 0.00 84 1014.2
20260831063507 82 169 5.0 8.0 0.00 0.00 0.00 84 1014.2
20260831063008 82 165 2.0 7.0 0.00 0.00 0.00 83 1014.1
20260831062008 83 176 3.0 7.0 0.00 0.00 0.00 83 1014.1
20260831061507 83 175 3.0 6.0 0.00 0.00 0.00 83 1014.2
20260831061008 83 173 4.0 7.0 0.00 0.00 0.00 83 1014.2
20260831060507 83 164 4.0 7.0 0.00 0.00 0.00 82 1014.2
20260831060006 83 161 6.0 8.0 0.00 0.00 0.00 82 1014.2
20260831055507 83 169 5.0 9.0 0.00 0.00 0.00 82 1014.4
20260831055008 83 163 6.0 9.0 0.00 0.00 0.00 82 1014.4
20260831054507 83 168 6.0 12.0 0.00 0.00 0.00 82 1014.3
20260831054007 83 165 5.0 9.0 0.00 0.00 0.00 82 1014.3
20260831053506 83 157 7.0 10.0 0.00 0.00 0.00 82 1014.3
20260831053008 83 158 7.0 10.0 0.00 0.00 0.00 82 1014.3
20260831052507 83 158 7.0 10.0 0.00 0.00 0.00 81 1014.4
20260831052007 83 163 6.0 10.0 0.00 0.00 0.00 81 1014.3
20260831051507 83 169 5.0 10.0 0.00 0.00 0.00 81 1014.2
20260831051008 83 173 5.0 10.0 0.00 0.00 0.00 81 1014.3
20260831045507 83 151 7.0 12.0 0.00 0.00 0.00 80 1014.3
20260831044507 83 149 7.0 10.0 0.00 0.00 0.00 80 1014.1
20260831043507 83 149 8.0 10.0 0.00 0.00 0.00 81 1014.2
20260831043008 84 154 8.0 10.0 0.00 0.00 0.00 80 1014.2
20260831041008 83 158 6.0 10.0 0.00 0.00 0.00 80 1014.2
20260831040507 83 156 7.0 10.0 0.00 0.00 0.00 80 1014.1
20260831040007 84 163 6.0 9.0 0.00 0.00 0.00 79 1014.1
20260831035007 84 161 6.0 9.0 0.00 0.00 0.00 79 1014.1
20260831034507 84 165 6.0 9.0 0.00 0.00 0.00 79 1014.1
20260831034008 84 161 7.0 12.0 0.00 0.00 0.00 79 1014.0
20260831033510 84 161 7.0 12.0 0.00 0.00 0.00 79 1014.0
20260831033007 84 161 7.0 9.0 0.00 0.00 0.00 78 1014.0
20260831032507 84 167 6.0 9.0 0.00 0.00 0.00 78 1013.9
20260831032007 84 163 7.0 12.0 0.00 0.00 0.00 78 1013.8
20260831030508 84 156 8.0 12.0 0.00 0.00 0.00 78 1013.8
20260831025507 85 149 9.0 13.0 0.00 0.00 0.00 77 1013.6
20260831025007 84 148 9.0 12.0 0.00 0.00 0.00 77 1013.6
20260831024507 84 145 9.0 12.0 0.00 0.00 0.00 77 1013.5
20260831024008 85 144 9.0 14.0 0.00 0.00 0.00 77 1013.5
20260831023507 85 149 10.0 16.0 0.00 0.00 0.00 76 1013.3
20260831023007 85 149 11.0 16.0 0.00 0.00 0.00 76 1013.2
20260831022507 85 140 12.0 16.0 0.00 0.00 0.00 76 1013.1
20260831022007 85 142 12.0 17.0 0.00 0.00 0.00 77 1013.0
20260831021507 85 140 12.0 17.0 0.00 0.00 0.00 76 1013.0
20260831021007 85 143 13.0 18.0 0.00 0.00 0.00 76 1012.9
20260831020506 85 145 11.0 16.0 0.00 0.00 0.00 75 1012.8
20260831020006 85 146 10.0 15.0 0.00 0.00 0.00 75 1012.8
20260831015506 85 148 12.0 17.0 0.00 0.00 0.00 76 1012.7
20260831015007 85 140 10.0 15.0 0.00 0.00 0.00 75 1012.7
20260831014507 86 144 10.0 15.0 0.00 0.00 0.00 74 1012.6
20260831013507 86 140 12.0 18.0 0.00 0.00 0.00 72 1012.4
20260831013007 86 141 13.0 16.0 0.00 0.00 0.00 71 1012.4
20260831012008 86 142 14.0 18.0 0.00 0.00 0.00 69 1012.3
20260831011507 86 140 11.0 16.0 0.00 0.00 0.00 68 1012.4
20260831011007 86 142 12.0 18.0 0.00 0.00 0.00 67 1012.4
20260831010507 87 147 12.0 17.0 0.00 0.00 0.00 66 1012.3
20260831010007 87 147 10.0 16.0 0.00 0.00 0.00 64 1012.2
20260831005506 88 150 11.0 16.0 0.00 0.00 0.00 63 1012.2
20260831005007 88 141 12.0 16.0 0.00 0.00 0.00 64 1012.1
20260831004507 88 141 12.0 16.0 0.00 0.00 0.00 62 1012.1
20260831003506 88 141 15.0 20.0 0.00 0.00 0.00 60 1011.9
20260831003007 89 142 13.0 20.0 0.00 0.00 0.00 59 1011.9
20260831002507 89 152 12.0 17.0 0.00 0.00 0.00 58 1011.9
20260831002008 89 143 12.0 20.0 0.00 0.00 0.00 57 1011.9
20260831001507 90 139 13.0 20.0 0.00 0.00 0.00 57 1011.7
20260831001007 90 136 13.0 18.0 0.00 0.00 0.00 55 1011.7
20260831000507 90 137 12.0 18.0 0.00 0.00 0.00 54 1011.7
20260831000007 89 130 13.0 21.0 0.00 0.00 0.00 53 1011.8
20260830235506 90 140 16.0 22.0 0.00 0.00 0.00 53 1011.8
20260830234507 92 147 13.0 18.0 0.00 0.00 0.00 50 1011.8
20260830234007 92 143 13.0 20.0 0.00 0.00 0.00 50 1011.7
20260830233007 93 137 15.0 21.0 0.00 0.00 0.00 48 1011.7
20260830232008 93 131 14.0 22.0 0.00 0.00 0.00 48 1011.7
20260830231007 93 144 12.0 20.0 0.00 0.00 0.00 46 1011.7
20260830230507 94 136 12.0 18.0 0.00 0.00 0.00 46 1011.6
20260830230007 94 131 13.0 18.0 0.00 0.00 0.00 45 1011.6
20260830225506 94 134 14.0 20.0 0.00 0.00 0.00 45 1011.5
20260830225007 94 152 14.0 21.0 0.00 0.00 0.00 44 1011.5
20260830224506 93 131 10.0 18.0 0.00 0.00 0.00 44 1011.6
20260830223506 92 138 13.0 20.0 0.00 0.00 0.00 44 1011.6
20260830222506 95 140 13.0 21.0 0.00 0.00 0.00 43 1011.6
20260830222007 95 129 10.0 16.0 0.00 0.00 0.00 43 1011.7
20260830221507 95 117 13.0 18.0 0.00 0.00 0.00 43 1011.7
20260830221008 95 119 14.0 20.0 0.00 0.00 0.00 43 1011.7
20260830220506 95 137 15.0 20.0 0.00 0.00 0.00 44 1011.7
20260830220006 96 120 12.0 17.0 0.00 0.00 0.00 44 1011.7
20260830215507 96 143 15.0 23.0 0.00 0.00 0.00 44 1011.7
20260830215007 96 153 7.0 17.0 0.00 0.00 0.00 44 1011.7
20260830214508 96 150 10.0 17.0 0.00 0.00 0.00 45 1011.6
20260830214007 96 113 12.0 18.0 0.00 0.00 0.00 45 1011.6
20260830213506 96 140 13.0 22.0 0.00 0.00 0.00 45 1011.6
20260830213007 96 128 12.0 18.0 0.00 0.00 0.00 45 1011.6
20260830212508 96 148 12.0 20.0 0.00 0.00 0.00 46 1011.7
20260830212010 96 130 14.0 22.0 0.00 0.00 0.00 46 1011.8
20260830211507 93 148 11.0 24.0 0.00 0.00 0.00 46 1011.9
20260830211007 94 138 13.0 20.0 0.00 0.00 0.00 46 1011.9
20260830210007 96 159 9.0 21.0 0.00 0.00 0.00 46 1012.1
20260830205506 96 111 14.0 21.0 0.00 0.00 0.00 46 1012.2
20260830205007 97 152 10.0 16.0 0.00 0.00 0.00 45 1012.2
20260830204507 96 158 13.0 20.0 0.00 0.00 0.00 46 1012.4
20260830204007 96 138 11.0 17.0 0.00 0.00 0.00 46 1012.5
20260830203506 95 141 9.0 17.0 0.00 0.00 0.00 48 1012.6
20260830203007 94 173 9.0 14.0 0.00 0.00 0.00 49 1012.6
20260830202507 93 135 9.0 13.0 0.00 0.00 0.00 53 1012.7
20260830202007 92 148 10.0 14.0 0.00 0.00 0.00 54 1012.7
20260830201506 92 136 10.0 15.0 0.00 0.00 0.00 56 1012.8
20260830201006 94 137 11.0 22.0 0.00 0.00 0.00 51 1013.0
20260830200507 95 139 13.0 20.0 0.00 0.00 0.00 47 1013.0
20260830200006 96 157 12.0 21.0 0.00 0.00 0.00 47 1013.2
20260830195506 95 148 13.0 21.0 0.00 0.00 0.00 47 1013.2
20260830195008 94 125 13.0 18.0 0.00 0.00 0.00 48 1013.1
20260830194506 94 115 11.0 17.0 0.00 0.00 0.00 48 1013.2
20260830194006 94 141 13.0 21.0 0.00 0.00 0.00 48 1013.3
20260830193507 94 140 12.0 17.0 0.00 0.00 0.00 48 1013.4
20260830193007 94 145 9.0 15.0 0.00 0.00 0.00 47 1013.5
20260830192007 95 146 8.0 14.0 0.00 0.00 0.00 46 1013.6
20260830191508 96 140 7.0 14.0 0.00 0.00 0.00 45 1013.6
20260830191007 96 143 10.0 18.0 0.00 0.00 0.00 44 1013.6
20260830190507 97 166 6.0 18.0 0.00 0.00 0.00 42 1013.7
20260830185506 97 149 8.0 13.0 0.00 0.00 0.00 42 1013.9
20260830185006 96 178 9.0 15.0 0.00 0.00 0.00 42 1013.9
20260830184506 96 192 8.0 14.0 0.00 0.00 0.00 43 1014.0
20260830183007 96 152 9.0 15.0 0.00 0.00 0.00 42 1014.4
20260830182507 96 156 7.0 14.0 0.00 0.00 0.00 45 1014.3
20260830182007 95 174 2.0 9.0 0.00 0.00 0.00 46 1014.5
20260830181509 96 175 6.0 9.0 0.00 0.00 0.00 44 1014.6
20260830181007 95 166 6.0 10.0 0.00 0.00 0.00 44 1014.7
20260830180506 95 181 3.0 9.0 0.00 0.00 0.00 46 1014.6
20260830180007 95 142 6.0 10.0 0.00 0.00 0.00 45 1014.7
20260830175507 95 146 7.0 13.0 0.00 0.00 0.00 45 1014.7
20260830175007 94 177 9.0 16.0 0.00 0.00 0.00 45 1014.8
20260830174506 94 238 5.0 8.0 0.00 0.00 0.00 46 1014.8
20260830174007 94 199 6.0 13.0 0.00 0.00 0.00 48 1014.9
20260830173506 93 163 7.0 14.0 0.00 0.00 0.00 49 1014.9
20260830173007 93 198 5.0 10.0 0.00 0.00 0.00 49 1015.0
20260830172507 92 208 5.0 8.0 0.00 0.00 0.00 50 1015.1
20260830172007 93 180 5.0 12.0 0.00 0.00 0.00 51 1015.2
20260830171506 93 174 7.0 13.0 0.00 0.00 0.00 52 1015.2
20260830171007 93 181 6.0 12.0 0.00 0.00 0.00 52 1015.3
20260830170507 92 204 7.0 13.0 0.00 0.00 0.00 51 1015.3
20260830170006 92 196 7.0 14.0 0.00 0.00 0.00 52 1015.3
20260830165507 92 211 6.0 9.0 0.00 0.00 0.00 53 1015.4
20260830165007 93 127 7.0 13.0 0.00 0.00 0.00 51 1015.4
20260830164506 93 152 6.0 13.0 0.00 0.00 0.00 52 1015.4
20260830164010 93 176 7.0 12.0 0.00 0.00 0.00 52 1015.4
20260830163509 93 172 6.0 12.0 0.00 0.00 0.00 53 1015.3
20260830163009 92 152 6.0 12.0 0.00 0.00 0.00 55 1015.3
20260830162009 91 178 7.0 15.0 0.00 0.00 0.00 56 1015.3
20260830161509 91 135 11.0 15.0 0.00 0.00 0.00 56 1015.3
20260830161009 90 169 7.0 10.0 0.00 0.00 0.00 58 1015.4
20260830160508 90 215 8.0 12.0 0.00 0.00 0.00 61 1015.3
20260830160008 90 192 7.0 12.0 0.00 0.00 0.00 59 1015.4
20260830155509 89 185 6.0 12.0 0.00 0.00 0.00 59 1015.4
20260830155009 89 177 6.0 9.0 0.00 0.00 0.00 61 1015.5
20260830154508 89 176 6.0 9.0 0.00 0.00 0.00 62 1015.5
20260830154009 89 174 5.0 12.0 0.00 0.00 0.00 64 1015.5
20260830153508 88 153 6.0 12.0 0.00 0.00 0.00 65 1015.6
20260830153009 88 179 7.0 10.0 0.00 0.00 0.00 66 1015.6
20260830152509 88 213 7.0 12.0 0.00 0.00 0.00 65 1015.6
20260830152010 89 196 7.0 13.0 0.00 0.00 0.00 65 1015.7
20260830151009 88 180 6.0 10.0 0.00 0.00 0.00 66 1015.7
20260830150509 88 184 6.0 9.0 0.00 0.00 0.00 67 1015.7
20260830150009 87 208 6.0 9.0 0.00 0.00 0.00 68 1015.7
20260830144509 86 232 7.0 12.0 0.00 0.00 0.00 73 1015.6
20260830144009 86 213 5.0 8.0 0.00 0.00 0.00 74 1015.6
20260830143509 86 190 4.0 10.0 0.00 0.00 0.00 75 1015.6
20260830142508 85 207 7.0 10.0 0.00 0.00 0.00 76 1015.3
20260830142009 85 213 7.0 13.0 0.00 0.00 0.00 76 1015.3
20260830141509 85 185 5.0 9.0 0.00 0.00 0.00 78 1015.3
20260830140508 85 196 5.0 9.0 0.00 0.00 0.00 77 1015.1
20260830140008 85 172 5.0 9.0 0.00 0.00 0.00 78 1015.1
20260830135509 85 185 5.0 9.0 0.00 0.00 0.00 79 1015.1
20260830135009 85 169 5.0 10.0 0.00 0.00 0.00 79 1015.2
20260830134509 84 173 5.0 8.0 0.00 0.00 0.00 81 1015.2
20260830134008 84 149 5.0 7.0 0.00 0.00 0.00 82 1015.2
20260830133509 83 166 4.0 6.0 0.00 0.00 0.00 83 1015.2
20260830133009 83 165 4.0 7.0 0.00 0.00 0.00 84 1015.2
20260830132508 83 146 6.0 7.0 0.00 0.00 0.00 85 1015.1
20260830132009 82 147 5.0 8.0 0.00 0.00 0.00 86 1015.0
20260830131509 82 143 6.0 7.0 0.00 0.00 0.00 87 1015.0
20260830131009 81 145 5.0 7.0 0.00 0.00 0.00 88 1015.0
20260830130010 80 149 4.0 6.0 0.00 0.00 0.00 89 1015.0
20260830125510 80 145 3.0 5.0 0.00 0.00 0.00 90 1015.0
20260830125009 80 144 5.0 6.0 0.00 0.00 0.00 91 1014.9
20260830124508 80 145 3.0 6.0 0.00 0.00 0.00 92 1014.8
20260830124009 80 147 3.0 6.0 0.00 0.00 0.00 92 1014.8
20260830123508 79 147 4.0 6.0 0.00 0.00 0.00 92 1014.8
20260830122509 79 151 4.0 6.0 0.00 0.00 0.00 92 1014.8
20260830122009 79 151 3.0 5.0 0.00 0.00 0.00 92 1014.7
20260830121509 79 146 3.0 6.0 0.00 0.00 0.00 93 1014.7
20260830121009 79 146 4.0 5.0 0.00 0.00 0.00 93 1014.7
20260830120508 79 142 3.0 6.0 0.00 0.00 0.00 92 1014.6
20260830120008 79 147 5.0 5.0 0.00 0.00 0.00 92 1014.6
20260830115508 79 146 3.0 5.0 0.00 0.00 0.00 92 1014.5
20260830115009 79 142 3.0 5.0 0.00 0.00 0.00 92 1014.5
20260830114509 79 143 3.0 5.0 0.00 0.00 0.00 92 1014.5
20260830114009 79 137 1.0 3.0 0.00 0.00 0.00 92 1014.5
20260830113508 79 139 3.0 5.0 0.00 0.00 0.00 92 1014.5
20260830113009 79 144 3.0 5.0 0.00 0.00 0.00 92 1014.4
20260830112509 79 148 2.0 3.0 0.00 0.00 0.00 92 1014.4
20260830112009 79 150 3.0 5.0 0.00 0.00 0.00 92 1014.5
20260830111509 79 147 2.0 3.0 0.00 0.00 0.00 92 1014.5
20260830111009 79 155 3.0 5.0 0.00 0.00 0.00 92 1014.6
20260830110509 79 148 3.0 3.0 0.00 0.00 0.00 92 1014.6
20260830105508 79 143 3.0 5.0 0.00 0.00 0.00 92 1014.6
20260830105009 79 145 3.0 5.0 0.00 0.00 0.00 91 1014.6
20260830104509 79 144 3.0 5.0 0.00 0.00 0.00 91 1014.6
20260830104009 79 143 2.0 3.0 0.00 0.00 0.00 91 1014.5
20260830103508 79 142 2.0 3.0 0.00 0.00 0.00 91 1014.5